,,Stat5,,Stat1,,Stat2,,Stat3,,Stat4,,Wind1,,Wind1,
time,status,PA1M_AVG,status,PR1M_SUM,status,RH1M_AVG,status,SR1M_AVG,status,TA1M_AVG,status,W1dAve1m,status,W1sAve1m,
2003-09-04, 00:00:00,VALID,920.136,VALID,0,VALID,94.1585,VALID,-0.0509425,VALID,18.9885,VALID,3,VALID,0.101563,
2003-09-04, 00:01:00,VALID,920.135,VALID,0,VALID,94.2208,VALID,-0.0169808,VALID,18.953,VALID,3,VALID,0.00981571,
2003-09-04, 00:02:00,VALID,920.118,VALID,0,VALID,94.4344,VALID,-0.0339617,VALID,18.9048,VALID,3,VALID,0.0833333,
2003-09-04, 00:03:00,VALID,920.098,VALID,0,VALID,94.2704,VALID,-0.0339617,VALID,18.837,VALID,3,VALID,0.376402,
2003-09-04, 00:04:00,VALID,920.086,VALID,0,VALID,94.4777,VALID,0,VALID,18.7561,VALID,3,VALID,0.309896,
2003-09-04, 00:05:00,VALID,920.087,VALID,0,VALID,95.4403,VALID,0,VALID,18.7595,VALID,3,VALID,0.231702,
2003-09-04, 00:06:00,VALID,920.063,VALID,0,VALID,95.5395,VALID,-0.0339617,VALID,18.7496,VALID,3,VALID,0.0752668,
2003-09-04, 00:07:00,VALID,920.04,VALID,0,VALID,95.5039,VALID,-0.0339617,VALID,18.6947,VALID,3,VALID,0.117989,
2003-09-04, 00:08:00,VALID,920.012,VALID,0,VALID,95.5789,VALID,-0.0679233,VALID,18.6373,VALID,3,VALID,0.0762247,
2003-09-04, 00:09:00,VALID,919.992,VALID,0,VALID,96.3914,VALID,-0.0339617,VALID,18.6627,VALID,349,VALID,0.320313,
2003-09-04, 00:10:00,VALID,919.971,VALID,0,VALID,97.1849,VALID,-0.0339617,VALID,18.7339,VALID,334,VALID,0.156661,
2003-09-04, 00:11:00,VALID,919.931,VALID,0,VALID,97.6058,VALID,0,VALID,18.8109,VALID,334,VALID,0,
2003-09-04, 00:12:00,VALID,919.918,VALID,0,VALID,97.8449,VALID,-0.0169808,VALID,18.8956,VALID,334,VALID,0.178209,
2003-09-04, 00:13:00,VALID,919.885,VALID,0,VALID,97.0222,VALID,-0.0169808,VALID,18.8467,VALID,334,VALID,0.00507812,
2003-09-04, 00:14:00,VALID,919.872,VALID,0,VALID,96.4741,VALID,-0.0509425,VALID,18.7759,VALID,334,VALID,0,
2003-09-04, 00:15:00,VALID,919.856,VALID,0,VALID,96.2795,VALID,-0.0169808,VALID,18.7245,VALID,348,VALID,0.275391,
2003-09-04, 00:16:00,VALID,919.852,VALID,0,VALID,95.7671,VALID,-0.0339617,VALID,18.611,VALID,4,VALID,0.774239,
2003-09-04, 00:17:00,VALID,919.831,VALID,0,VALID,96.9891,VALID,-0.0169808,VALID,18.6405,VALID,3,VALID,0.980564,
2003-09-04, 00:18:00,VALID,919.829,VALID,0,VALID,97.3019,VALID,-0.0679233,VALID,18.6726,VALID,8,VALID,1.07221,
2003-09-04, 00:19:00,VALID,919.807,VALID,0,VALID,97.2383,VALID,-0.0339617,VALID,18.6696,VALID,9,VALID,1.05709,
2003-09-04, 00:20:00,VALID,919.794,VALID,0,VALID,97.2447,VALID,-0.0339617,VALID,18.6562,VALID,8,VALID,1.0709,
2003-09-04, 00:21:00,VALID,919.776,VALID,0,VALID,97.4291,VALID,-0.0339617,VALID,18.7053,VALID,7,VALID,1.01172,
2003-09-04, 00:22:00,VALID,919.758,VALID,0,VALID,97.6147,VALID,-0.0169808,VALID,18.7759,VALID,11,VALID,1.34475,
2003-09-04, 00:23:00,VALID,919.741,VALID,0,VALID,97.2383,VALID,-0.0339617,VALID,18.8375,VALID,12,VALID,0.548584,
2003-09-04, 00:24:00,VALID,919.745,VALID,0,VALID,96.6547,VALID,-0.0169808,VALID,18.8375,VALID,23,VALID,0.340583,
2003-09-04, 00:25:00,VALID,919.734,VALID,0,VALID,96.4779,VALID,-0.0339617,VALID,18.8407,VALID,29,VALID,0,
2003-09-04, 00:26:00,VALID,919.734,VALID,0,VALID,95.8955,VALID,0,VALID,18.8117,VALID,29,VALID,0,
2003-09-04, 00:27:00,VALID,919.722,VALID,0,VALID,96.0507,VALID,-0.0339617,VALID,18.8218,VALID,10,VALID,0.124047,
2003-09-04, 00:28:00,VALID,919.729,VALID,0,VALID,95.9972,VALID,-0.0679233,VALID,18.8442,VALID,342,VALID,0.0369945,
2003-09-04, 00:29:00,VALID,919.74,VALID,0,VALID,96.0545,VALID,-0.0339617,VALID,18.8144,VALID,340,VALID,0.182432,
2003-09-04, 00:30:00,VALID,919.731,VALID,0,VALID,96.4245,VALID,-0.0339617,VALID,18.8636,VALID,339,VALID,0,
2003-09-04, 00:31:00,VALID,919.724,VALID,0,VALID,96.4512,VALID,-0.0169808,VALID,18.8924,VALID,339,VALID,0,
2003-09-04, 00:32:00,VALID,919.702,VALID,0,VALID,96.0888,VALID,-0.0169808,VALID,18.8797,VALID,339,VALID,0.0174753,
2003-09-04, 00:33:00,VALID,919.68,VALID,0,VALID,96.3024,VALID,-0.0339617,VALID,18.87,VALID,324,VALID,0.238898,
2003-09-04, 00:34:00,VALID,919.66,VALID,0,VALID,96.4601,VALID,-0.0679233,VALID,18.8638,VALID,283,VALID,0.0716463,
2003-09-04, 00:35:00,VALID,919.649,VALID,0,VALID,96.5974,VALID,-0.0169808,VALID,18.8665,VALID,283,VALID,0.110524,
2003-09-04, 00:36:00,VALID,919.607,VALID,0,VALID,96.5644,VALID,-0.0339617,VALID,18.8606,VALID,261,VALID,0.213894,
2003-09-04, 00:37:00,VALID,919.598,VALID,0,VALID,96.7729,VALID,-0.0509425,VALID,18.8566,VALID,249,VALID,0.0170898,
2003-09-04, 00:38:00,VALID,919.577,VALID,0,VALID,96.7869,VALID,-0.0339617,VALID,18.8698,VALID,249,VALID,0,
2003-09-04, 00:39:00,VALID,919.542,VALID,0,VALID,96.9802,VALID,0,VALID,18.9085,VALID,249,VALID,0,
2003-09-04, 00:40:00,VALID,919.509,VALID,0,VALID,96.7106,VALID,-0.0339617,VALID,18.8921,VALID,249,VALID,0,
2003-09-04, 00:41:00,VALID,919.481,VALID,0,VALID,96.7195,VALID,0,VALID,18.8988,VALID,249,VALID,0,
2003-09-04, 00:42:00,VALID,919.468,VALID,0,VALID,96.7805,VALID,0,VALID,18.8919,VALID,249,VALID,0,
2003-09-04, 00:43:00,VALID,919.443,VALID,0,VALID,96.3037,VALID,-0.0169808,VALID,18.873,VALID,249,VALID,0,
2003-09-04, 00:44:00,VALID,919.423,VALID,0,VALID,96.2694,VALID,-0.0169808,VALID,18.8571,VALID,249,VALID,0,
2003-09-04, 00:45:00,VALID,919.393,VALID,0,VALID,96.6063,VALID,-0.0169808,VALID,18.8596,VALID,249,VALID,0,
2003-09-04, 00:46:00,VALID,919.372,VALID,0,VALID,96.8251,VALID,0,VALID,18.8892,VALID,249,VALID,0,
2003-09-04, 00:47:00,VALID,919.365,VALID,0,VALID,96.7017,VALID,-0.0169808,VALID,18.8991,VALID,249,VALID,0,
2003-09-04, 00:48:00,VALID,919.334,VALID,0,VALID,96.7831,VALID,-0.0169808,VALID,18.8988,VALID,188,VALID,0.284108,
2003-09-04, 00:49:00,VALID,919.327,VALID,0,VALID,96.8162,VALID,-0.0169808,VALID,18.8896,VALID,166,VALID,0.396599,
2003-09-04, 00:50:00,VALID,919.325,VALID,0,VALID,96.9878,VALID,0,VALID,18.8691,VALID,154,VALID,0.582981,
2003-09-04, 00:51:00,VALID,919.302,VALID,0,VALID,96.9891,VALID,-0.0169808,VALID,18.8564,VALID,141,VALID,0.526123,
2003-09-04, 00:52:00,VALID,919.276,VALID,0,VALID,97.026,VALID,-0.0339617,VALID,18.8343,VALID,134,VALID,0.531672,
2003-09-04, 00:53:00,VALID,919.247,VALID,0,VALID,97.2104,VALID,-0.0169808,VALID,18.7983,VALID,128,VALID,0.608553,
2003-09-04, 00:54:00,VALID,919.224,VALID,0,VALID,97.541,VALID,0,VALID,18.808,VALID,127,VALID,0.67537,
2003-09-04, 00:55:00,VALID,919.193,VALID,0,VALID,97.7088,VALID,0,VALID,18.8239,VALID,115,VALID,0.155107,
2003-09-04, 00:56:00,VALID,919.173,VALID,0,VALID,97.382,VALID,0,VALID,18.8144,VALID,115,VALID,0,
2003-09-04, 00:57:00,VALID,919.136,VALID,0,VALID,96.834,VALID,0,VALID,18.7598,VALID,112,VALID,0.079603,
2003-09-04, 00:58:00,VALID,919.106,VALID,0,VALID,96.5466,VALID,0,VALID,18.6949,VALID,80,VALID,0.172112,
2003-09-04, 00:59:00,VALID,919.07,VALID,0,VALID,96.6788,VALID,-0.0169808,VALID,18.6631,VALID,59,VALID,0.158573,
2003-09-04, 01:00:00,VALID,919.041,VALID,0,VALID,97.0679,VALID,-0.0509425,VALID,18.6631,VALID,56,VALID,0.306949,
2003-09-04, 01:01:00,VALID,919.006,VALID,0,VALID,97.3095,VALID,0.0169808,VALID,18.6751,VALID,56,VALID,0.0363898,
2003-09-04, 01:02:00,VALID,918.986,VALID,0,VALID,97.3909,VALID,-0.0339617,VALID,18.7212,VALID,56,VALID,0,
2003-09-04, 01:03:00,VALID,918.977,VALID,0,VALID,97.335,VALID,0.0169808,VALID,18.7305,VALID,56,VALID,0,
2003-09-04, 01:04:00,VALID,918.957,VALID,0,VALID,97.246,VALID,0,VALID,18.7434,VALID,56,VALID,0,
2003-09-04, 01:05:00,VALID,918.967,VALID,0,VALID,97.3413,VALID,-0.0169808,VALID,18.7498,VALID,56,VALID,0,
2003-09-04, 01:06:00,VALID,918.965,VALID,0,VALID,97.4736,VALID,0,VALID,18.7729,VALID,56,VALID,0,
2003-09-04, 01:07:00,VALID,918.969,VALID,0,VALID,97.8118,VALID,-0.0169808,VALID,18.8181,VALID,56,VALID,0,
2003-09-04, 01:08:00,VALID,918.97,VALID,0,VALID,97.8932,VALID,-0.0339617,VALID,18.8601,VALID,32,VALID,0.323396,
2003-09-04, 01:09:00,VALID,918.977,VALID,0,VALID,98.3039,VALID,-0.0169808,VALID,18.9574,VALID,356,VALID,0.344322,
2003-09-04, 01:10:00,VALID,918.961,VALID,0,VALID,98.2518,VALID,-0.0169808,VALID,18.9959,VALID,311,VALID,0.215993,
2003-09-04, 01:11:00,VALID,918.953,VALID,0,VALID,98.4196,VALID,-0.0169808,VALID,19.0439,VALID,243,VALID,0.0705236,
2003-09-04, 01:12:00,VALID,918.939,VALID,0,VALID,98.3077,VALID,0,VALID,19.0829,VALID,4,VALID,0.341619,
2003-09-04, 01:13:00,VALID,918.918,VALID,0,VALID,97.5511,VALID,-0.0339617,VALID,19.0017,VALID,27,VALID,0.0865709,
2003-09-04, 01:14:00,VALID,918.913,VALID,0,VALID,97.3121,VALID,0,VALID,18.957,VALID,27,VALID,0.224095,
2003-09-04, 01:15:00,VALID,918.867,VALID,0,VALID,97.6783,VALID,-0.0169808,VALID,18.9992,VALID,25,VALID,0.45662,
2003-09-04, 01:16:00,VALID,918.854,VALID,0,VALID,97.8271,VALID,-0.0339617,VALID,19.0017,VALID,21,VALID,0.611662,
2003-09-04, 01:17:00,VALID,918.799,VALID,0,VALID,98.1768,VALID,0,VALID,19.0469,VALID,20,VALID,0.350414,
2003-09-04, 01:18:00,VALID,918.769,VALID,0,VALID,98.3637,VALID,-0.0169808,VALID,19.1016,VALID,20,VALID,0.0116132,
2003-09-04, 01:19:00,VALID,918.751,VALID,0,VALID,98.2632,VALID,0,VALID,19.0919,VALID,20,VALID,0,
2003-09-04, 01:20:00,VALID,918.724,VALID,0,VALID,98.2149,VALID,0.0339617,VALID,19.0919,VALID,20,VALID,0,
2003-09-04, 01:21:00,VALID,918.731,VALID,0,VALID,98.1908,VALID,0,VALID,19.0951,VALID,20,VALID,0,
2003-09-04, 01:22:00,VALID,918.71,VALID,0,VALID,98.2823,VALID,0,VALID,19.1018,VALID,20,VALID,0,
2003-09-04, 01:23:00,VALID,918.716,VALID,0,VALID,98.2747,VALID,0,VALID,19.1115,VALID,20,VALID,0,
2003-09-04, 01:24:00,VALID,918.7,VALID,0,VALID,98.1335,VALID,0,VALID,19.0916,VALID,20,VALID,0.0124081,
2003-09-04, 01:25:00,VALID,918.658,VALID,0,VALID,97.0603,VALID,0,VALID,18.9595,VALID,21,VALID,0.506334,
2003-09-04, 01:26:00,VALID,918.64,VALID,0,VALID,97.265,VALID,0,VALID,18.8947,VALID,20,VALID,0.661932,
2003-09-04, 01:27:00,VALID,918.605,VALID,0,VALID,97.5842,VALID,0.101885,VALID,18.8845,VALID,21,VALID,0.22973,
2003-09-04, 01:28:00,VALID,918.603,VALID,0,VALID,97.7432,VALID,0.0849042,VALID,18.8716,VALID,40,VALID,0.33676,
2003-09-04, 01:29:00,VALID,918.591,VALID,0,VALID,97.9784,VALID,0.0849042,VALID,18.8748,VALID,52,VALID,0.0374178,
2003-09-04, 01:30:00,VALID,918.588,VALID,0,VALID,98.1285,VALID,0.101885,VALID,18.891,VALID,52,VALID,0,
2003-09-04, 01:31:00,VALID,918.589,VALID,0,VALID,98.1463,VALID,0.101885,VALID,18.8944,VALID,52,VALID,0,
2003-09-04, 01:32:00,VALID,918.585,VALID,0,VALID,98.3484,VALID,0.0849042,VALID,18.8972,VALID,52,VALID,0,
2003-09-04, 01:33:00,VALID,918.562,VALID,0,VALID,98.3688,VALID,0.0679233,VALID,18.9168,VALID,52,VALID,0,
2003-09-04, 01:34:00,VALID,918.566,VALID,0,VALID,98.3561,VALID,0.0679233,VALID,18.9106,VALID,52,VALID,0,
2003-09-04, 01:35:00,VALID,918.559,VALID,0,VALID,98.4082,VALID,0.0509425,VALID,18.9036,VALID,52,VALID,0,
2003-09-04, 01:36:00,VALID,918.529,VALID,0,VALID,98.4642,VALID,0.0679233,VALID,18.9103,VALID,34,VALID,0.101357,
2003-09-04, 01:37:00,VALID,918.484,VALID,0,VALID,98.4349,VALID,0.0849042,VALID,18.9354,VALID,14,VALID,0.297256,
2003-09-04, 01:38:00,VALID,918.438,VALID,0,VALID,98.0127,VALID,0.101885,VALID,18.8423,VALID,15,VALID,0.186121,
2003-09-04, 01:39:00,VALID,918.38,VALID,0,VALID,98.1997,VALID,0.0849042,VALID,18.8453,VALID,15,VALID,0.0373733,
2003-09-04, 01:40:00,VALID,918.329,VALID,0,VALID,98.0636,VALID,0.0849042,VALID,18.813,VALID,15,VALID,0,
2003-09-04, 01:41:00,VALID,918.309,VALID,0,VALID,98.2696,VALID,0.0169808,VALID,18.8234,VALID,15,VALID,0.101351,
2003-09-04, 01:42:00,VALID,918.31,VALID,0,VALID,98.5595,VALID,0,VALID,18.8663,VALID,15,VALID,0.0415296,
2003-09-04, 01:43:00,VALID,918.315,VALID,0,VALID,98.7312,VALID,-0.0509425,VALID,18.8951,VALID,15,VALID,0.0283717,
2003-09-04, 01:44:00,VALID,918.328,VALID,0,VALID,98.2531,VALID,-0.0339617,VALID,18.8435,VALID,21,VALID,0.544779,
2003-09-04, 01:45:00,VALID,918.355,VALID,0,VALID,97.8958,VALID,-0.0339617,VALID,18.7498,VALID,37,VALID,0.553079,
2003-09-04, 01:46:00,VALID,918.391,VALID,0,VALID,98.2098,VALID,-0.0169808,VALID,18.7528,VALID,37,VALID,0.0688345,
2003-09-04, 01:47:00,VALID,918.407,VALID,0,VALID,98.4006,VALID,-0.0169808,VALID,18.7754,VALID,39,VALID,0.179688,
2003-09-04, 01:48:00,VALID,918.422,VALID,0,VALID,98.3268,VALID,-0.0169808,VALID,18.7692,VALID,46,VALID,0.353252,
2003-09-04, 01:49:00,VALID,918.411,VALID,0,VALID,98.5303,VALID,0,VALID,18.763,VALID,82,VALID,0.462993,
2003-09-04, 01:50:00,VALID,918.405,VALID,0,VALID,98.6969,VALID,0,VALID,18.7787,VALID,96,VALID,0.47903,
2003-09-04, 01:51:00,VALID,918.418,VALID,0,VALID,98.6943,VALID,0,VALID,18.7953,VALID,105,VALID,0.379573,
2003-09-04, 01:52:00,VALID,918.411,VALID,0,VALID,98.5926,VALID,-0.0169808,VALID,18.7918,VALID,110,VALID,0.486443,
2003-09-04, 01:53:00,VALID,918.414,VALID,0,VALID,98.5773,VALID,-0.0169808,VALID,18.7757,VALID,131,VALID,0.535473,
2003-09-04, 01:54:00,VALID,918.405,VALID,0,VALID,98.5799,VALID,0,VALID,18.7821,VALID,149,VALID,0.746212,
2003-09-04, 01:55:00,VALID,918.395,VALID,0,VALID,98.6015,VALID,-0.0509425,VALID,18.7893,VALID,151,VALID,0.748522,
2003-09-04, 01:56:00,VALID,918.363,VALID,0,VALID,98.6587,VALID,-0.0169808,VALID,18.7694,VALID,147,VALID,0.491982,
2003-09-04, 01:57:00,VALID,918.338,VALID,0,VALID,98.6867,VALID,0,VALID,18.7665,VALID,147,VALID,0.432155,
2003-09-04, 01:58:00,VALID,918.304,VALID,0,VALID,98.7299,VALID,-0.0169808,VALID,18.7602,VALID,147,VALID,0.12138,
2003-09-04, 01:59:00,VALID,918.292,VALID,0,VALID,98.7757,VALID,-0.0339617,VALID,18.7496,VALID,146,VALID,0.0128676,
2003-09-04, 02:00:00,VALID,918.277,VALID,0,VALID,98.791,VALID,-0.0339617,VALID,18.7595,VALID,146,VALID,0,
2003-09-04, 02:01:00,VALID,918.276,VALID,0,VALID,98.7808,VALID,-0.0509425,VALID,18.7431,VALID,146,VALID,0,
2003-09-04, 02:02:00,VALID,918.271,VALID,0,VALID,98.7948,VALID,-0.0509425,VALID,18.76,VALID,146,VALID,0,
2003-09-04, 02:03:00,VALID,918.279,VALID,0,VALID,98.7375,VALID,0,VALID,18.7561,VALID,146,VALID,0,
2003-09-04, 02:04:00,VALID,918.278,VALID,0,VALID,98.6676,VALID,0,VALID,18.7364,VALID,146,VALID,0,
2003-09-04, 02:05:00,VALID,918.264,VALID,0,VALID,98.6244,VALID,-0.0339617,VALID,18.7533,VALID,145,VALID,0.208841,
2003-09-04, 02:06:00,VALID,918.253,VALID,0,VALID,98.4057,VALID,0,VALID,18.7272,VALID,128,VALID,0.371783,
2003-09-04, 02:07:00,VALID,918.221,VALID,0,VALID,98.4108,VALID,-0.0169808,VALID,18.7014,VALID,128,VALID,0.395481,
2003-09-04, 02:08:00,VALID,918.191,VALID,0,VALID,98.4858,VALID,-0.0339617,VALID,18.6818,VALID,128,VALID,0.0217803,
2003-09-04, 02:09:00,VALID,918.178,VALID,0,VALID,98.5455,VALID,-0.0339617,VALID,18.6827,VALID,128,VALID,0,
2003-09-04, 02:10:00,VALID,918.165,VALID,0,VALID,98.5595,VALID,-0.0169808,VALID,18.676,VALID,128,VALID,0,
2003-09-04, 02:11:00,VALID,918.146,VALID,0,VALID,98.6358,VALID,0,VALID,18.6624,VALID,128,VALID,0,
2003-09-04, 02:12:00,VALID,918.133,VALID,0,VALID,98.571,VALID,-0.0509425,VALID,18.6691,VALID,128,VALID,0,
2003-09-04, 02:13:00,VALID,918.131,VALID,0,VALID,98.3103,VALID,0,VALID,18.6209,VALID,128,VALID,0.00919118,
2003-09-04, 02:14:00,VALID,918.13,VALID,0,VALID,98.3128,VALID,0.0169808,VALID,18.6043,VALID,222,VALID,0.401182,
2003-09-04, 02:15:00,VALID,918.134,VALID,0,VALID,98.838,VALID,0,VALID,18.7014,VALID,307,VALID,0.474609,
2003-09-04, 02:16:00,VALID,918.121,VALID,0,VALID,98.8482,VALID,-0.0339617,VALID,18.7242,VALID,6,VALID,0.141892,
2003-09-04, 02:17:00,VALID,918.115,VALID,0,VALID,98.8952,VALID,0,VALID,18.7505,VALID,6,VALID,0,
2003-09-04, 02:18:00,VALID,918.11,VALID,0,VALID,98.7732,VALID,0,VALID,18.7438,VALID,6,VALID,0,
2003-09-04, 02:19:00,VALID,918.109,VALID,0,VALID,98.7439,VALID,0,VALID,18.7369,VALID,6,VALID,0,
2003-09-04, 02:20:00,VALID,918.131,VALID,0,VALID,98.7681,VALID,0,VALID,18.7434,VALID,6,VALID,0,
2003-09-04, 02:21:00,VALID,918.142,VALID,0,VALID,98.6752,VALID,0,VALID,18.7302,VALID,6,VALID,0,
2003-09-04, 02:22:00,VALID,918.161,VALID,0,VALID,98.4375,VALID,-0.0169808,VALID,18.7014,VALID,6,VALID,0,
2003-09-04, 02:23:00,VALID,918.181,VALID,0,VALID,98.0852,VALID,-0.0169808,VALID,18.6306,VALID,6,VALID,0.145059,
2003-09-04, 02:24:00,VALID,918.185,VALID,0,VALID,97.7571,VALID,-0.0339617,VALID,18.563,VALID,6,VALID,0,
2003-09-04, 02:25:00,VALID,918.189,VALID,0,VALID,97.5664,VALID,-0.0509425,VALID,18.5012,VALID,6,VALID,0.40625,
2003-09-04, 02:26:00,VALID,918.187,VALID,0,VALID,97.4418,VALID,0.0509425,VALID,18.4367,VALID,6,VALID,0.963796,
2003-09-04, 02:27:00,VALID,918.18,VALID,0,VALID,98.0941,VALID,0.0849042,VALID,18.4353,VALID,10,VALID,1.19393,
2003-09-04, 02:28:00,VALID,918.188,VALID,0,VALID,98.4362,VALID,0.0849042,VALID,18.4809,VALID,10,VALID,1.16533,
2003-09-04, 02:29:00,VALID,918.165,VALID,0,VALID,98.3217,VALID,0.0679233,VALID,18.4712,VALID,8,VALID,1.05811,
2003-09-04, 02:30:00,VALID,918.157,VALID,0,VALID,98.1602,VALID,0.0679233,VALID,18.4387,VALID,6,VALID,0.938133,
2003-09-04, 02:31:00,VALID,918.139,VALID,0,VALID,98.3141,VALID,0.101885,VALID,18.4456,VALID,1,VALID,1.07072,
2003-09-04, 02:32:00,VALID,918.122,VALID,0,VALID,98.4832,VALID,0.0679233,VALID,18.4452,VALID,1,VALID,1.0294,
2003-09-04, 02:33:00,VALID,918.114,VALID,0,VALID,98.5544,VALID,0.0509425,VALID,18.4611,VALID,2,VALID,0.873666,
2003-09-04, 02:34:00,VALID,918.116,VALID,0,VALID,98.5633,VALID,0.0679233,VALID,18.4747,VALID,4,VALID,0.707031,
2003-09-04, 02:35:00,VALID,918.125,VALID,0,VALID,98.6231,VALID,0.0679233,VALID,18.4908,VALID,11,VALID,0.862965,
2003-09-04, 02:36:00,VALID,918.115,VALID,0,VALID,98.7134,VALID,0.0679233,VALID,18.5169,VALID,9,VALID,0.669744,
2003-09-04, 02:37:00,VALID,918.124,VALID,0,VALID,98.7452,VALID,0.0509425,VALID,18.5388,VALID,9,VALID,0.599662,
2003-09-04, 02:38:00,VALID,918.121,VALID,0,VALID,98.557,VALID,0.101885,VALID,18.5457,VALID,17,VALID,0.795641,
2003-09-04, 02:39:00,VALID,918.107,VALID,0,VALID,98.5455,VALID,0.101885,VALID,18.5455,VALID,31,VALID,1.08368,
2003-09-04, 02:40:00,VALID,918.099,VALID,0,VALID,98.749,VALID,0.101885,VALID,18.5967,VALID,35,VALID,1.13986,
2003-09-04, 02:41:00,VALID,918.09,VALID,0,VALID,98.6702,VALID,0.0509425,VALID,18.6465,VALID,29,VALID,0.931526,
2003-09-04, 02:42:00,VALID,918.11,VALID,0,VALID,98.5277,VALID,0,VALID,18.6631,VALID,25,VALID,0.633446,
2003-09-04, 02:43:00,VALID,918.125,VALID,0,VALID,98.4108,VALID,0,VALID,18.6657,VALID,25,VALID,0.101807,
2003-09-04, 02:44:00,VALID,918.137,VALID,0,VALID,98.2493,VALID,0.0169808,VALID,18.6661,VALID,25,VALID,0.241765,
2003-09-04, 02:45:00,VALID,918.15,VALID,0,VALID,98.1297,VALID,0.0169808,VALID,18.6527,VALID,27,VALID,0.519326,
2003-09-04, 02:46:00,VALID,918.144,VALID,0,VALID,98.1526,VALID,-0.0169808,VALID,18.6497,VALID,45,VALID,0.585526,
2003-09-04, 02:47:00,VALID,918.134,VALID,0,VALID,98.2925,VALID,-0.0169808,VALID,18.6827,VALID,45,VALID,0.421113,
2003-09-04, 02:48:00,VALID,918.125,VALID,0,VALID,98.4006,VALID,0,VALID,18.6887,VALID,53,VALID,0.485524,
2003-09-04, 02:49:00,VALID,918.117,VALID,0,VALID,98.5659,VALID,0,VALID,18.724,VALID,68,VALID,0.417863,
2003-09-04, 02:50:00,VALID,918.095,VALID,0,VALID,98.7007,VALID,0.0169808,VALID,18.7692,VALID,69,VALID,0.248106,
2003-09-04, 02:51:00,VALID,918.095,VALID,0,VALID,98.4896,VALID,0.0339617,VALID,18.7861,VALID,82,VALID,0.195946,
2003-09-04, 02:52:00,VALID,918.106,VALID,0,VALID,98.2327,VALID,0.0169808,VALID,18.7431,VALID,163,VALID,0.549959,
2003-09-04, 02:53:00,VALID,918.107,VALID,0,VALID,97.9886,VALID,0.0169808,VALID,18.7014,VALID,171,VALID,1.01871,
2003-09-04, 02:54:00,VALID,918.128,VALID,0,VALID,97.9657,VALID,0,VALID,18.6664,VALID,168,VALID,1.25724,
2003-09-04, 02:55:00,VALID,918.12,VALID,0,VALID,97.9568,VALID,0,VALID,18.6308,VALID,167,VALID,0.781939,
2003-09-04, 02:56:00,VALID,918.139,VALID,0,VALID,97.9034,VALID,0.0169808,VALID,18.5951,VALID,135,VALID,0.630279,
2003-09-04, 02:57:00,VALID,918.165,VALID,0,VALID,98.0687,VALID,0.0169808,VALID,18.5529,VALID,143,VALID,0.949707,
2003-09-04, 02:58:00,VALID,918.186,VALID,0,VALID,98.2785,VALID,0,VALID,18.5337,VALID,143,VALID,0.880068,
2003-09-04, 02:59:00,VALID,918.204,VALID,0,VALID,98.4413,VALID,0.0339617,VALID,18.5042,VALID,140,VALID,0.936883,
2003-09-04, 03:00:00,VALID,918.225,VALID,0,VALID,98.6155,VALID,0.0339617,VALID,18.5121,VALID,142,VALID,1.30592,
2003-09-04, 03:01:00,VALID,918.247,VALID,0,VALID,98.866,VALID,0,VALID,18.4952,VALID,143,VALID,1.26905,
2003-09-04, 03:02:00,VALID,918.263,VALID,0,VALID,99.0275,VALID,0,VALID,18.492,VALID,140,VALID,1.18957,
2003-09-04, 03:03:00,VALID,918.272,VALID,0,VALID,99.119,VALID,0.0339617,VALID,18.4853,VALID,129,VALID,1.00084,
2003-09-04, 03:04:00,VALID,918.271,VALID,0,VALID,99.2347,VALID,0,VALID,18.4754,VALID,128,VALID,0.901989,
2003-09-04, 03:05:00,VALID,918.255,VALID,0,VALID,99.3428,VALID,0.0169808,VALID,18.4858,VALID,125,VALID,0.79413,
2003-09-04, 03:06:00,VALID,918.236,VALID,0,VALID,99.4573,VALID,0,VALID,18.4821,VALID,117,VALID,0.668997,
2003-09-04, 03:07:00,VALID,918.212,VALID,0,VALID,99.4191,VALID,0,VALID,18.4851,VALID,102,VALID,0.691201,
2003-09-04, 03:08:00,VALID,918.191,VALID,0,VALID,99.5336,VALID,0.0339617,VALID,18.4851,VALID,114,VALID,0.885099,
2003-09-04, 03:09:00,VALID,918.176,VALID,0,VALID,99.6061,VALID,0.0169808,VALID,18.5107,VALID,115,VALID,0.799862,
2003-09-04, 03:10:00,VALID,918.189,VALID,0,VALID,99.6328,VALID,0.0169808,VALID,18.5308,VALID,111,VALID,0.9394,
2003-09-04, 03:11:00,VALID,918.189,VALID,0,VALID,99.5832,VALID,-0.0169808,VALID,18.5275,VALID,108,VALID,0.750244,
2003-09-04, 03:12:00,VALID,918.206,VALID,0,VALID,99.6531,VALID,-0.101885,VALID,18.5513,VALID,129,VALID,1.04117,
2003-09-04, 03:13:00,VALID,918.22,VALID,0,VALID,99.5933,VALID,-0.101885,VALID,18.5573,VALID,124,VALID,0.702303,
2003-09-04, 03:14:00,VALID,918.232,VALID,0,VALID,99.5094,VALID,-0.0849042,VALID,18.5446,VALID,107,VALID,0.732113,
2003-09-04, 03:15:00,VALID,918.243,VALID,0,VALID,99.545,VALID,-0.0849042,VALID,18.5421,VALID,111,VALID,1.03944,
2003-09-04, 03:16:00,VALID,918.272,VALID,0,VALID,99.6061,VALID,-0.101885,VALID,18.5577,VALID,109,VALID,1.08065,
2003-09-04, 03:17:00,VALID,918.301,VALID,0,VALID,99.69,VALID,-0.101885,VALID,18.5868,VALID,110,VALID,0.86951,
2003-09-04, 03:18:00,VALID,918.325,VALID,0,VALID,99.6824,VALID,-0.0849042,VALID,18.6089,VALID,121,VALID,0.962595,
2003-09-04, 03:19:00,VALID,918.343,VALID,0,VALID,99.6607,VALID,-0.101885,VALID,18.632,VALID,131,VALID,0.77576,
2003-09-04, 03:20:00,VALID,918.358,VALID,0,VALID,99.7307,VALID,-0.0849042,VALID,18.674,VALID,141,VALID,0.607319,
2003-09-04, 03:21:00,VALID,918.354,VALID,0,VALID,99.6951,VALID,-0.101885,VALID,18.7065,VALID,142,VALID,0.585115,
2003-09-04, 03:22:00,VALID,918.354,VALID,0,VALID,99.6162,VALID,-0.101885,VALID,18.719,VALID,136,VALID,0.601753,
2003-09-04, 03:23:00,VALID,918.347,VALID,0,VALID,99.5501,VALID,-0.101885,VALID,18.7284,VALID,122,VALID,0.538833,
2003-09-04, 03:24:00,VALID,918.339,VALID,0,VALID,99.5259,VALID,-0.101885,VALID,18.7286,VALID,108,VALID,0.445946,
2003-09-04, 03:25:00,VALID,918.354,VALID,0,VALID,99.4573,VALID,-0.101885,VALID,18.7552,VALID,96,VALID,0.444092,
2003-09-04, 03:26:00,VALID,918.39,VALID,0,VALID,99.3734,VALID,-0.0509425,VALID,18.7512,VALID,95,VALID,0.317779,
2003-09-04, 03:27:00,VALID,918.408,VALID,0,VALID,99.3047,VALID,0,VALID,18.7602,VALID,95,VALID,0.0715461,
2003-09-04, 03:28:00,VALID,918.431,VALID,0,VALID,99.3149,VALID,0,VALID,18.7568,VALID,117,VALID,0.407689,
2003-09-04, 03:29:00,VALID,918.442,VALID,0,VALID,99.3085,VALID,0,VALID,18.766,VALID,124,VALID,0.283727,
2003-09-04, 03:30:00,VALID,918.446,VALID,0,VALID,99.2564,VALID,0,VALID,18.7893,VALID,138,VALID,0.451057,
2003-09-04, 03:31:00,VALID,918.447,VALID,0,VALID,99.2309,VALID,0,VALID,18.7883,VALID,144,VALID,0.274071,
2003-09-04, 03:32:00,VALID,918.429,VALID,0,VALID,99.1902,VALID,0,VALID,18.8013,VALID,144,VALID,0.0340909,
2003-09-04, 03:33:00,VALID,918.406,VALID,0,VALID,99.1356,VALID,0.0169808,VALID,18.8047,VALID,144,VALID,0.00105574,
2003-09-04, 03:34:00,VALID,918.391,VALID,0,VALID,98.9741,VALID,0,VALID,18.7955,VALID,135,VALID,0.142475,
2003-09-04, 03:35:00,VALID,918.377,VALID,0,VALID,98.8189,VALID,0.0169808,VALID,18.7598,VALID,129,VALID,0.25514,
2003-09-04, 03:36:00,VALID,918.381,VALID,0,VALID,98.8952,VALID,0.0509425,VALID,18.7367,VALID,129,VALID,0.307355,
2003-09-04, 03:37:00,VALID,918.395,VALID,0,VALID,99.0516,VALID,0.0169808,VALID,18.7528,VALID,129,VALID,0.472656,
2003-09-04, 03:38:00,VALID,918.41,VALID,0,VALID,99.1025,VALID,0.0169808,VALID,18.7593,VALID,129,VALID,0.506968,